CW9803 Weather Reports


time (UTC)temp
F
wind
direction
speed
knots
gust
knots
rain 1hr
in
rain 24hr
in
rain mn
in
humidity
%
barometer
mb
20260902194524 71 147 0.9 1.7 0.00 0.00 0.00 40 1005.9
20260902194020 72 137 3.5 3.5 0.00 0.00 0.00 39 1006.2
20260902193515 71 129 4.3 6.1 0.00 0.00 0.00 40 1006.0
20260902193015 74 180 10.4 13.9 0.00 0.00 0.00 37 1006.2
20260902192514 73 129 3.5 3.5 0.00 0.00 0.00 38 1005.8
20260902192013 73 141 1.7 1.7 0.00 0.00 0.00 39 1006.1
20260902191509 72 130 0.9 0.9 0.00 0.00 0.00 40 1006.1
20260902191003 73 190 4.3 6.1 0.00 0.00 0.00 40 1006.2
20260902190458 71 185 4.3 6.1 0.00 0.00 0.00 41 1006.4
20260902185954 69 133 1.7 1.7 0.00 0.00 0.00 44 1006.2
20260902185449 70 177 4.3 6.1 0.00 0.00 0.00 43 1006.1
20260902184944 70 139 2.6 2.6 0.00 0.00 0.00 42 1006.4
20260902184439 72 183 2.6 2.6 0.00 0.00 0.00 43 1006.6
20260902183935 70 148 0.9 1.7 0.00 0.00 0.00 43 1006.7
20260902183431 70 137 2.6 2.6 0.00 0.00 0.00 43 1006.5
20260902182927 70 177 3.5 5.2 0.00 0.00 0.00 44 1006.5
20260902182423 70 55 0.9 2.6 0.00 0.00 0.00 43 1006.5
20260902181919 71 146 1.7 2.6 0.00 0.00 0.00 43 1006.8
20260902181414 70 145 1.7 3.5 0.00 0.00 0.00 44 1006.8
20260902180909 69 135 0.0 0.0 0.00 0.00 0.00 43 1006.9
20260902180405 69 119 0.9 3.5 0.00 0.00 0.00 44 1007.0
20260902175900 68 131 0.9 1.7 0.00 0.00 0.00 45 1007.2
20260902175355 68 172 2.6 2.6 0.00 0.00 0.00 45 1006.9
20260902174850 68 96 1.7 1.7 0.00 0.00 0.00 46 1007.2
20260902174347 67 134 0.0 0.9 0.00 0.00 0.00 47 1007.2
20260902173837 67 142 1.7 2.6 0.00 0.00 0.00 47 1007.3
20260902173336 67 145 1.7 1.7 0.00 0.00 0.00 47 1007.4
20260902172831 67 103 0.9 0.9 0.00 0.00 0.00 47 1007.2
20260902172331 66 135 0.9 0.9 0.00 0.00 0.00 48 1007.4
20260902171825 67 123 0.9 1.7 0.00 0.00 0.00 48 1007.5
20260902171320 65 131 1.7 2.6 0.00 0.00 0.00 48 1007.4
20260902170812 66 132 0.9 0.9 0.00 0.00 0.00 48 1007.5
20260902170307 65 123 0.9 1.7 0.00 0.00 0.00 50 1007.5
20260902165802 65 92 1.7 1.7 0.00 0.00 0.00 51 1007.5
20260902165256 64 144 0.9 0.9 0.00 0.00 0.00 51 1007.5
20260902164750 64 121 0.9 0.9 0.00 0.00 0.00 52 1007.7
20260902164244 64 89 2.6 3.5 0.00 0.00 0.00 52 1007.5
20260902163739 64 98 3.5 3.5 0.00 0.00 0.00 52 1007.7
20260902163233 63 130 1.7 1.7 0.00 0.00 0.00 53 1007.7
20260902162732 64 129 0.9 1.7 0.00 0.00 0.00 53 1007.5
20260902162227 64 83 0.9 1.7 0.00 0.00 0.00 50 1007.5
20260902161722 64 137 0.9 1.7 0.00 0.00 0.00 51 1007.4
20260902161218 64 141 0.9 1.7 0.00 0.00 0.00 50 1007.3
20260902160714 62 126 0.0 0.0 0.00 0.00 0.00 53 1007.4
20260902160208 61 134 0.0 0.0 0.00 0.00 0.00 55 1007.3
20260902155707 61 126 0.9 1.7 0.00 0.00 0.00 55 1007.2
20260902155205 61 103 0.9 0.9 0.00 0.00 0.00 55 1007.1
20260902154701 60 84 1.7 2.6 0.00 0.00 0.00 57 1007.4
20260902154200 60 95 1.7 1.7 0.00 0.00 0.00 58 1007.3
20260902153655 60 77 1.7 1.7 0.00 0.00 0.00 58 1007.1
20260902153150 59 129 0.0 0.9 0.00 0.00 0.00 58 1007.5
20260902152646 59 309 0.9 1.7 0.00 0.00 0.00 59 1007.3
20260902152141 59 356 1.7 1.7 0.00 0.00 0.00 59 1007.3
20260902151636 59 142 0.9 0.9 0.00 0.00 0.00 58 1007.4
20260902151131 59 162 0.9 0.9 0.00 0.00 0.00 59 1007.3
20260902150626 59 129 1.7 2.6 0.00 0.00 0.00 59 1007.4
20260902150121 58 318 2.6 2.6 0.00 0.00 0.00 60 1007.7
20260902145616 57 95 1.7 1.7 0.00 0.00 0.00 62 1007.9
20260902145115 56 187 0.0 0.0 0.00 0.00 0.00 67 1007.8
20260902144613 57 115 0.9 0.9 0.00 0.00 0.00 64 1007.2
20260902144112 55 136 0.0 0.0 0.00 0.00 0.00 66 1007.3
20260902143607 55 144 0.0 0.0 0.00 0.00 0.00 68 1007.3
20260902143103 54 353 0.9 1.7 0.00 0.00 0.00 70 1007.1
20260902142558 54 151 0.9 1.7 0.00 0.00 0.00 72 1007.0
20260902142054 54 137 0.0 0.0 0.00 0.00 0.00 72 1007.3
20260902141548 54 115 0.9 0.9 0.00 0.00 0.00 72 1007.3
20260902141043 54 150 0.9 0.9 0.00 0.00 0.00 71 1007.2
20260902140538 54 170 3.5 3.5 0.00 0.00 0.00 71 1007.4
20260902140034 54 153 0.9 0.9 0.00 0.00 0.00 72 1007.3
20260902135533 54 141 0.9 0.9 0.00 0.00 0.00 72 1007.1
20260902135028 54 125 0.0 0.0 0.00 0.00 0.00 71 1007.0
20260902134523 54 144 0.0 0.0 0.00 0.00 0.00 70 1007.3
20260902134018 54 144 0.0 0.0 0.00 0.00 0.00 70 1007.3
20260902133513 54 120 0.0 0.0 0.00 0.00 0.00 70 1007.3
20260902133012 55 94 0.9 0.9 0.00 0.00 0.00 69 1007.5
20260902132508 55 146 0.0 0.9 0.00 0.00 0.00 69 1007.7
20260902132003 55 103 0.9 0.9 0.00 0.00 0.00 69 1008.0
20260902131459 55 147 0.0 0.0 0.00 0.00 0.00 69 1007.9
20260902130958 54 236 1.7 1.7 0.00 0.00 0.00 70 1008.2
20260902130454 53 129 1.7 1.7 0.00 0.00 0.00 71 1007.7
20260902125949 53 150 1.7 1.7 0.00 0.00 0.00 72 1007.5
20260902125446 53 114 0.9 0.9 0.00 0.00 0.00 72 1007.7
20260902124941 54 141 0.0 0.9 0.00 0.00 0.00 71 1008.0
20260902124437 54 162 0.9 0.9 0.00 0.00 0.00 71 1007.9
20260902123932 54 147 0.0 0.0 0.00 0.00 0.00 70 1007.8
20260902123429 54 148 0.0 0.0 0.00 0.00 0.00 70 1007.5
20260902122926 54 125 0.0 0.0 0.00 0.00 0.00 70 1007.3
20260902122423 54 73 0.9 1.7 0.00 0.00 0.00 70 1007.3
20260902121918 54 99 0.9 0.9 0.00 0.00 0.00 69 1007.7
20260902121412 54 144 0.0 0.0 0.00 0.00 0.00 70 1007.8
20260902120908 54 153 0.0 0.0 0.00 0.00 0.00 69 1007.4
20260902120404 54 145 0.9 0.9 0.00 0.00 0.00 69 1007.4
20260902115904 54 173 1.7 1.7 0.00 0.00 0.00 69 1007.4
20260902115400 54 165 1.7 1.7 0.00 0.00 0.00 69 1007.2
20260902114856 55 146 0.0 0.0 0.00 0.00 0.00 69 1007.3
20260902114351 55 157 0.0 0.0 0.00 0.00 0.00 69 1006.8
20260902113846 55 141 0.0 0.0 0.00 0.00 0.00 68 1006.9
20260902113342 55 156 0.9 0.9 0.00 0.00 0.00 67 1006.9
20260902112841 55 140 0.0 0.9 0.00 0.00 0.00 67 1007.0
20260902112338 55 150 1.7 1.7 0.00 0.00 0.00 67 1007.1
20260902111833 55 153 0.9 0.9 0.00 0.00 0.00 67 1007.1
20260902111329 55 162 0.0 0.0 0.00 0.00 0.00 67 1007.3
20260902110824 55 142 0.0 0.9 0.00 0.00 0.00 67 1007.2
20260902110320 56 126 0.9 0.9 0.00 0.00 0.00 67 1007.7
20260902105820 56 150 1.7 1.7 0.00 0.00 0.00 66 1007.3
20260902105315 56 142 0.0 0.0 0.00 0.00 0.00 66 1007.1
20260902104810 56 142 0.0 0.0 0.00 0.00 0.00 66 1007.2
20260902104306 56 141 0.0 0.0 0.00 0.00 0.00 66 1007.3
20260902103806 56 156 0.9 1.7 0.00 0.00 0.00 65 1007.5
20260902103301 57 125 0.0 0.0 0.00 0.00 0.00 65 1007.0
20260902102756 56 137 0.0 0.0 0.00 0.00 0.00 65 1007.0
20260902102254 56 62 0.9 1.7 0.00 0.00 0.00 66 1007.1
20260902101749 56 135 0.0 0.0 0.00 0.00 0.00 65 1007.3
20260902101244 56 125 0.0 0.0 0.00 0.00 0.00 65 1007.1
20260902100743 56 145 0.0 0.0 0.00 0.00 0.00 65 1007.0
20260902100237 56 131 0.0 0.0 0.00 0.00 0.00 64 1007.0
20260902095731 57 115 0.0 0.0 0.00 0.00 0.00 63 1006.7
20260902095226 57 95 0.9 0.9 0.00 0.00 0.00 63 1006.9
20260902094721 56 109 0.9 1.7 0.00 0.00 0.00 64 1007.0
20260902094217 55 357 0.9 1.7 0.00 0.00 0.00 66 1007.0
20260902093715 55 112 0.9 0.9 0.00 0.00 0.00 66 1006.9
20260902093211 55 118 0.0 0.0 0.00 0.00 0.00 65 1006.8
20260902092706 55 132 0.0 0.0 0.00 0.00 0.00 65 1007.1
20260902092201 55 115 0.0 0.0 0.00 0.00 0.00 65 1007.0
20260902091655 55 133 0.0 0.0 0.00 0.00 0.00 65 1007.0
20260902091152 56 129 0.0 0.0 0.00 0.00 0.00 63 1006.9
20260902090647 57 148 0.0 0.0 0.00 0.00 0.00 62 1007.0
20260902090147 58 132 0.0 0.0 0.00 0.00 0.00 61 1007.0
20260902085641 59 115 0.0 0.0 0.00 0.00 0.00 59 1007.1
20260902085142 58 117 0.9 1.7 0.00 0.00 0.00 59 1007.3
20260902084638 59 116 0.0 0.0 0.00 0.00 0.00 58 1007.2
20260902084134 60 310 0.9 0.9 0.00 0.00 0.00 56 1007.2
20260902083628 61 281 2.6 3.5 0.00 0.00 0.00 56 1007.0
20260902083127 60 269 6.1 8.7 0.00 0.00 0.00 56 1006.9
20260902082623 60 222 3.5 6.1 0.00 0.00 0.00 57 1006.9
20260902082120 60 131 0.0 0.0 0.00 0.00 0.00 56 1006.9
20260902081616 60 113 0.0 0.9 0.00 0.00 0.00 55 1006.9
20260902081116 61 149 0.9 0.9 0.00 0.00 0.00 55 1006.9
20260902080611 62 240 2.6 2.6 0.00 0.00 0.00 54 1006.8
20260902080108 62 209 2.6 3.5 0.00 0.00 0.00 54 1006.8
20260902075607 62 306 7.0 8.7 0.00 0.00 0.00 54 1007.0
20260902075103 62 250 5.2 6.1 0.00 0.00 0.00 52 1006.9
20260902074559 63 186 1.7 1.7 0.00 0.00 0.00 51 1007.0
20260902074054 62 209 2.6 2.6 0.00 0.00 0.00 52 1006.9
20260902073549 59 138 0.0 0.9 0.00 0.00 0.00 53 1006.9
20260902073046 58 153 0.9 0.9 0.00 0.00 0.00 54 1006.8
20260902072541 57 147 0.0 0.0 0.00 0.00 0.00 59 1006.9
20260902072038 57 151 0.0 0.0 0.00 0.00 0.00 58 1006.4
20260902071537 58 151 0.0 0.0 0.00 0.00 0.00 58 1006.6
20260902071034 58 102 0.0 0.0 0.00 0.00 0.00 58 1006.6
20260902070529 59 132 0.0 0.0 0.00 0.00 0.00 56 1006.2
20260902070023 59 141 0.0 0.0 0.00 0.00 0.00 55 1006.5
20260902065517 60 145 0.0 0.0 0.00 0.00 0.00 54 1006.6
20260902065013 60 169 0.0 0.0 0.00 0.00 0.00 54 1006.6
20260902064509 60 142 0.0 0.0 0.00 0.00 0.00 54 1006.4
20260902064004 60 140 0.9 0.9 0.00 0.00 0.00 55 1006.6
20260902063503 61 136 0.0 0.0 0.00 0.00 0.00 52 1006.6
20260902062958 62 120 0.0 0.0 0.00 0.00 0.00 52 1006.8
20260902062457 62 141 1.7 1.7 0.00 0.00 0.00 47 1006.7
20260902061952 61 148 0.0 0.9 0.00 0.00 0.00 55 1006.6
20260902061442 59 102 0.0 0.9 0.00 0.00 0.00 59 1006.2
20260902060938 59 137 0.0 0.0 0.00 0.00 0.00 59 1006.6
20260902060434 59 148 0.0 0.0 0.00 0.00 0.00 59 1006.6
20260902055930 59 133 0.0 0.0 0.00 0.00 0.00 59 1006.4
20260902055426 60 95 0.9 0.9 0.00 0.00 0.00 58 1006.4
20260902054921 59 145 0.0 0.0 0.00 0.00 0.00 58 1006.1
20260902054416 60 170 0.0 0.9 0.00 0.00 0.00 58 1006.0
20260902053911 60 162 0.0 0.0 0.00 0.00 0.00 57 1006.2
20260902053407 61 133 0.0 0.0 0.00 0.00 0.00 56 1006.2
20260902052905 62 108 0.9 0.9 0.00 0.00 0.00 55 1006.2
20260902052401 64 94 0.0 0.9 0.00 0.00 0.00 50 1006.0
20260902051855 67 154 1.7 1.7 0.00 0.00 0.00 43 1006.2
20260902051350 63 213 3.5 3.5 0.00 0.00 0.00 48 1006.1
20260902050849 61 85 0.9 0.9 0.00 0.00 0.00 55 1006.4
20260902050348 62 153 0.0 0.0 0.00 0.00 0.00 56 1006.0
20260902045843 61 184 1.7 2.6 0.00 0.00 0.00 55 1006.1
20260902045334 61 170 1.7 1.7 0.00 0.00 0.00 56 1005.7
20260902044831 61 151 0.9 0.9 0.00 0.00 0.00 57 1005.8
20260902044326 61 125 0.0 0.0 0.00 0.00 0.00 57 1005.6
20260902043827 61 147 0.0 0.0 0.00 0.00 0.00 57 1005.7
20260902043321 61 147 0.0 0.0 0.00 0.00 0.00 57 1005.5
20260902042820 62 147 0.0 0.0 0.00 0.00 0.00 56 1005.7
20260902042315 62 149 0.0 0.0 0.00 0.00 0.00 55 1005.5
20260902041810 63 149 0.0 0.0 0.00 0.00 0.00 56 1005.5
20260902041311 64 149 0.0 0.0 0.00 0.00 0.00 52 1005.4
20260902040809 64 151 0.9 0.9 0.00 0.00 0.00 51 1005.1
20260902040306 65 146 0.0 0.0 0.00 0.00 0.00 50 1005.2
20260902035804 65 159 0.0 0.0 0.00 0.00 0.00 51 1005.2
20260902035300 66 151 0.0 0.0 0.00 0.00 0.00 50 1005.1
20260902034758 67 152 0.0 0.0 0.00 0.00 0.00 49 1005.3
20260902034254 68 139 0.0 0.0 0.00 0.00 0.00 46 1004.9
20260902033751 69 128 0.0 0.0 0.00 0.00 0.00 45 1004.7
20260902033247 68 114 0.0 0.0 0.00 0.00 0.00 45 1004.8
20260902032745 68 140 0.0 0.0 0.00 0.00 0.00 46 1004.7
20260902032241 68 141 0.0 0.0 0.00 0.00 0.00 46 1004.5
20260902031740 69 131 0.0 0.0 0.00 0.00 0.00 46 1004.3
20260902031236 69 144 1.7 1.7 0.00 0.00 0.00 45 1004.3
20260902030731 70 148 0.9 0.9 0.00 0.00 0.00 44 1004.3
20260902030225 71 131 0.0 0.0 0.00 0.00 0.00 43 1004.1
20260902025724 72 128 0.0 0.0 0.00 0.00 0.00 41 1004.0
20260902025220 72 334 3.5 5.2 0.00 0.00 0.00 40 1004.0
20260902024715 72 235 1.7 1.7 0.00 0.00 0.00 41 1003.9
20260902024211 73 123 0.0 0.9 0.00 0.00 0.00 40 1003.9
20260902023706 73 44 2.6 2.6 0.00 0.00 0.00 40 1003.8
20260902023201 73 74 1.7 1.7 0.00 0.00 0.00 39 1003.5
20260902022700 74 149 0.9 1.7 0.00 0.00 0.00 39 1003.8
20260902022156 74 279 3.5 6.1 0.00 0.00 0.00 39 1003.3
20260902021652 75 227 4.3 5.2 0.00 0.00 0.00 37 1003.4
20260902021146 75 244 5.2 7.0 0.00 0.00 0.00 37 1003.7
20260902020643 76 274 6.1 7.8 0.00 0.00 0.00 37 1003.4
20260902020138 77 210 4.3 5.2 0.00 0.00 0.00 35 1003.3
20260902015633 78 221 1.7 1.7 0.00 0.00 0.00 33 1003.4
20260902015130 78 258 6.1 7.0 0.00 0.00 0.00 33 1003.3
20260902014625 78 184 1.7 1.7 0.00 0.00 0.00 32 1003.3
20260902014121 78 149 0.0 0.0 0.00 0.00 0.00 32 1003.3
20260902013620 78 131 0.0 0.0 0.00 0.00 0.00 32 1003.4
20260902013116 78 131 0.0 0.0 0.00 0.00 0.00 31 1003.4
20260902012611 79 158 0.9 1.7 0.00 0.00 0.00 31 1003.4
20260902012106 79 158 0.0 0.9 0.00 0.00 0.00 31 1003.7
20260902011602 79 146 3.5 3.5 0.00 0.00 0.00 30 1003.5
20260902011101 79 173 2.6 2.6 0.00 0.00 0.00 30 1003.7
20260902010600 80 163 2.6 3.5 0.00 0.00 0.00 30 1003.3
20260902010057 80 165 1.7 1.7 0.00 0.00 0.00 30 1003.8
20260902005554 80 158 4.3 7.0 0.00 0.00 0.00 30 1003.5
20260902005051 80 176 2.6 5.2 0.00 0.00 0.00 29 1003.4
20260902004549 80 186 4.3 6.1 0.00 0.00 0.00 29 1003.2
20260902004045 81 177 13.0 13.9 0.00 0.00 0.00 29 1003.4
20260902003540 81 169 4.3 6.1 0.00 0.00 0.00 30 1003.4
20260902003036 81 172 1.7 2.6 0.00 0.00 0.00 30 1003.5
20260902002531 81 148 6.1 7.0 0.00 0.00 0.00 30 1003.3
20260902002020 81 134 5.2 8.7 0.00 0.00 0.00 30 1003.5
20260902001515 81 185 9.6 12.2 0.00 0.00 0.00 30 1003.5
20260902001010 81 198 7.0 7.8 0.00 0.00 0.00 30 1003.4
20260902000505 81 169 8.7 11.3 0.00 0.00 0.00 30 1003.9
20260902000000 82 168 7.0 8.7 0.00 0.00 0.00 29 1003.8
20260901235454 82 163 7.0 8.7 0.00 0.00 0.00 30 1003.9
20260901234950 82 140 7.8 14.8 0.00 0.00 0.00 30 1003.9
20260901234444 82 177 4.3 5.2 0.00 0.00 0.00 30 1004.0
20260901233939 82 179 7.0 11.3 0.00 0.00 0.00 30 1004.0
20260901233434 82 147 2.6 2.6 0.00 0.00 0.00 30 1004.1
20260901232930 82 163 7.0 8.7 0.00 0.00 0.00 30 1004.2
20260901232430 82 209 5.2 7.0 0.00 0.00 0.00 30 1004.3
20260901231925 82 192 1.7 2.6 0.00 0.00 0.00 31 1004.0
20260901231422 82 186 5.2 6.1 0.00 0.00 0.00 31 1004.3
20260901230918 81 190 8.7 13.0 0.00 0.00 0.00 31 1004.2
20260901230417 81 151 7.0 12.2 0.00 0.00 0.00 33 1004.3
20260901225913 82 145 3.5 5.2 0.00 0.00 0.00 33 1004.4
20260901225407 81 194 9.6 13.0 0.00 0.00 0.00 34 1004.5
20260901224902 82 182 4.3 6.1 0.00 0.00 0.00 34 1004.5
20260901224358 83 170 3.5 5.2 0.00 0.00 0.00 34 1004.9
20260901223854 81 191 2.6 2.6 0.00 0.00 0.00 36 1004.8
20260901223349 81 148 0.9 1.7 0.00 0.00 0.00 36 1005.1
20260901222845 80 175 1.7 2.6 0.00 0.00 0.00 37 1005.1
20260901222342 80 142 0.9 0.9 0.00 0.00 0.00 37 1005.2
20260901221837 81 168 6.1 7.8 0.00 0.00 0.00 37 1005.3
20260901221332 80 155 4.3 6.1 0.00 0.00 0.00 37 1005.4
20260901220832 78 157 1.7 1.7 0.00 0.00 0.00 39 1005.5
20260901220331 77 166 1.7 2.6 0.00 0.00 0.00 39 1005.3
20260901215830 77 167 3.5 3.5 0.00 0.00 0.00 39 1005.5
20260901215329 77 146 2.6 3.5 0.00 0.00 0.00 38 1005.6
20260901214828 77 148 5.2 7.0 0.00 0.00 0.00 39 1005.6
20260901214327 77 156 1.7 3.5 0.00 0.00 0.00 39 1005.6
20260901213822 78 177 3.5 7.0 0.00 0.00 0.00 38 1005.6
20260901213322 77 209 7.0 9.6 0.00 0.00 0.00 40 1005.7
20260901212816 77 176 3.5 6.1 0.00 0.00 0.00 40 1005.8
20260901212312 78 181 2.6 3.5 0.00 0.00 0.00 39 1005.8
20260901211808 78 219 2.6 2.6 0.00 0.00 0.00 39 1005.7
20260901211304 77 150 1.7 2.6 0.00 0.00 0.00 38 1006.0
20260901210759 78 150 1.7 2.6 0.00 0.00 0.00 38 1006.0
20260901210255 77 181 3.5 6.1 0.00 0.00 0.00 38 1005.9
20260901205751 77 188 1.7 2.6 0.00 0.00 0.00 38 1006.1
20260901205250 77 154 3.5 6.1 0.00 0.00 0.00 38 1006.0
20260901204745 78 140 0.9 0.9 0.00 0.00 0.00 37 1006.1
20260901204236 79 152 0.9 1.7 0.00 0.00 0.00 37 1006.4
20260901203731 79 175 3.5 3.5 0.00 0.00 0.00 37 1006.4
20260901203231 79 149 0.0 0.0 0.00 0.00 0.00 37 1006.4
20260901202730 79 143 2.6 2.6 0.00 0.00 0.00 38 1006.5
20260901202226 80 181 2.6 2.6 0.00 0.00 0.00 36 1006.4
20260901201721 79 136 0.9 0.9 0.00 0.00 0.00 37 1006.4
20260901201220 80 165 4.3 6.1 0.00 0.00 0.00 35 1006.5
20260901200714 79 125 2.6 2.6 0.00 0.00 0.00 37 1006.5
20260901200210 78 188 2.6 2.6 0.00 0.00 0.00 38 1006.5
20260901195707 77 178 2.6 3.5 0.00 0.00 0.00 39 1006.6
20260901195201 77 144 0.9 1.7 0.00 0.00 0.00 40 1006.8